Weather in Morpeth

United Kingdom     55°10′02″N   1°41′25″W
temp.,
°C
wind,
m/s
gust,
m/s
humid.,
%
clouds,
%
prec.,
mm/h
press.,
hPa
HPBL,
m
1 march, mon
mon100:00+3w11900 0.0 103622
03:00+3wnw11900 0.0 103522
06:00+2sw11900 0.0 103422
09:00+5e00860 0.0 103452
12:00+8ese33740 0.0 1034605
15:00+8ese34701 0.0 1033474
18:00+3ese22931 0.0 103231
21:00+3ese11970 0.0 103224
2 march, tue
tue200:00+2sse11968 0.0 103324
03:00+1s12890 0.0 103123
06:000sse12820 0.0 103123
09:00+4sse23730 0.0 1031183
12:00+8se34620 0.0 1031407
15:00+8se23660 0.0 1030387
18:00+3e12900 0.0 102923
21:00+2ssw01920 0.0 102922
3 march, wed
wed300:00+2w11910 0.0 102922
03:00+2wnw119013 0.0 102822
06:00+1nnw118724 0.0 102723
09:00+4nnw117776 0.0 102765
12:00+7nne237188 0.0 1027471
15:00+7nne448036 0.0 1025481
18:00+3nne239520 0.0 102544
21:00+1nw23920 0.0 102539
4 march, thu
thu400:00+1nnw38964 0.0 1025204
03:00+4nne498695 0.1 1024585
06:00+4nne498697 0.1 1024539
09:00+5nne5982100 0.1 1025762
12:00+4nne81082100 0.4 1026905
15:00+3nne71075100 0.1 10271193
18:00+2nne5107994 0.3 1028642
21:00+2nne5107793 0.1 1029765
5 march, fri
fri500:00+2nne497894 0.2 1029656
03:00+2nne4974100 0.1 1029646
06:00+2n597998 0.1 1031645
09:00+3nne687487 0.1 10311090
12:00+4nne576790 0.2 10321245
15:00+4nne566998 0.1 10331131
18:00+1n358091 0.3 1033166
21:000nw228165 0.0 103548